FW3078 Weather Reports


Display with metric or nautical units.
time (UTC)temp
F
wind
direction
speed
MPH
gust
MPH
rain 1hr
in
rain 24hr
in
rain mn
in
humidity
%
barometer
mb
20260509052601 44 120 0.0 0.0 0.00 0.00 0.00 72 1006.8
20260509051556 44 154 0.0 1.0 0.00 0.00 0.00 76 1006.7
20260509050555 44 131 0.0 1.0 0.00 0.00 0.00 78 1006.8
20260509045550 44 144 0.0 0.0 0.00 0.00 0.00 78 1006.8
20260509044549 44 144 0.0 0.0 0.00 0.00 0.00 76 1006.7
20260509043549 44 160 0.0 1.0 0.00 0.00 0.00 78 1007.0
20260509042547 44 114 0.0 1.0 0.00 0.00 0.00 75 1007.2
20260509041546 45 120 0.0 0.0 0.00 0.00 0.00 72 1007.1
20260509040542 45 120 0.0 0.0 0.00 0.00 0.00 72 1007.3
20260509035541 44 120 0.0 0.0 0.00 0.00 0.00 73 1007.3
20260509034536 46 120 0.0 0.0 0.00 0.00 0.00 70 1007.3
20260509033535 47 114 0.0 0.0 0.00 0.00 0.00 68 1007.5
20260509032535 48 114 0.0 1.0 0.00 0.00 0.00 68 1007.5
20260509031535 48 114 0.0 0.0 0.00 0.00 0.00 66 1007.7
20260509030531 48 114 0.0 1.0 0.00 0.00 0.00 66 1008.0
20260509025529 49 120 0.0 1.0 0.00 0.00 0.00 63 1007.9
20260509024526 48 106 0.0 0.0 0.00 0.00 0.00 62 1007.9
20260509023526 50 157 0.0 0.0 0.00 0.00 0.00 59 1007.9
20260509022525 51 157 0.0 2.0 0.00 0.00 0.00 54 1008.0
20260509021520 50 195 0.0 0.0 0.00 0.00 0.00 54 1007.9
20260509020515 50 195 0.0 0.0 0.00 0.00 0.00 53 1008.0
20260509015511 51 195 0.0 0.0 0.00 0.00 0.00 51 1008.0
20260509014510 53 195 0.0 0.0 0.00 0.00 0.00 49 1007.7
20260509013509 53 195 0.0 0.0 0.00 0.00 0.00 47 1007.8
20260509012508 54 195 0.0 0.0 0.00 0.00 0.00 46 1007.8
20260509011502 55 180 0.0 0.0 0.00 0.00 0.00 46 1007.7
20260509010457 55 228 0.0 2.0 0.00 0.00 0.00 44 1007.6
20260509005452 57 225 2.0 2.0 0.00 0.00 0.00 43 1007.6
20260509004448 58 243 0.0 3.0 0.00 0.00 0.00 42 1007.5
20260509003444 59 270 0.0 3.0 0.00 0.00 0.00 41 1007.4
20260509002444 60 246 0.0 4.0 0.00 0.00 0.00 39 1007.3
20260509001443 61 240 4.0 5.0 0.00 0.00 0.00 37 1007.4
20260509000440 62 312 2.0 8.0 0.00 0.00 0.00 37 1007.3
20260508235438 63 270 2.0 6.0 0.00 0.00 0.00 37 1007.3
20260508234437 64 74 0.0 3.0 0.00 0.00 0.00 36 1007.3
20260508233434 63 251 3.0 11.0 0.00 0.00 0.00 38 1007.4
20260508232433 64 253 3.0 8.0 0.00 0.00 0.00 37 1007.4
20260508231433 64 232 5.0 7.0 0.00 0.00 0.00 36 1007.4
20260508230432 62 278 3.0 6.0 0.00 0.00 0.00 39 1007.2
20260508225432 61 244 0.0 4.0 0.00 0.00 0.00 39 1007.5
20260508224427 64 262 5.0 7.0 0.00 0.00 0.00 37 1007.2
20260508223422 64 270 5.0 8.0 0.00 0.00 0.00 35 1007.7
20260508222422 65 248 2.0 5.0 0.00 0.00 0.00 34 1007.7
20260508221420 64 114 1.0 7.0 0.00 0.00 0.00 37 1007.8
20260508220419 64 219 3.0 8.0 0.00 0.00 0.00 36 1007.6
20260508215418 65 183 3.0 5.0 0.00 0.00 0.00 36 1007.7
20260508214418 65 241 5.0 8.0 0.00 0.00 0.00 36 1007.8
20260508213418 65 147 5.0 9.0 0.00 0.00 0.00 37 1007.9
20260508212416 65 225 0.0 13.0 0.00 0.00 0.00 37 1007.8
20260508211413 64 285 2.0 9.0 0.00 0.00 0.00 38 1008.0
20260508210413 64 130 4.0 10.0 0.00 0.00 0.00 35 1008.0
20260508205413 65 141 0.0 5.0 0.00 0.00 0.00 37 1008.2
20260508204412 64 256 3.0 5.0 0.00 0.00 0.00 37 1008.1
20260508203410 64 260 4.0 12.0 0.00 0.00 0.00 36 1008.4
20260508202409 64 310 7.0 9.0 0.00 0.00 0.00 40 1008.4
20260508201408 63 90 1.0 6.0 0.00 0.00 0.00 34 1008.7
20260508200408 66 277 3.0 5.0 0.00 0.00 0.00 38 1008.7
20260508195406 64 225 3.0 8.0 0.00 0.00 0.00 41 1008.8
20260508194406 63 260 5.0 9.0 0.00 0.00 0.00 36 1009.2
20260508193405 64 209 4.0 4.0 0.00 0.00 0.00 42 1009.2
20260508192404 64 237 3.0 9.0 0.00 0.00 0.00 42 1009.3
20260508191359 64 214 2.0 7.0 0.00 0.00 0.00 36 1009.5
20260508190358 63 275 3.0 10.0 0.00 0.00 0.00 40 1009.7
20260508185358 61 141 2.0 7.0 0.00 0.00 0.00 41 1009.7
20260508184353 62 173 2.0 9.0 0.00 0.00 0.00 43 1010.0
20260508183351 61 195 5.0 7.0 0.00 0.00 0.00 38 1010.1
20260508182350 63 231 2.0 5.0 0.00 0.00 0.00 38 1010.1
20260508181349 63 209 4.0 11.0 0.00 0.00 0.00 41 1010.2
20260508180348 62 175 2.0 10.0 0.00 0.00 0.00 47 1010.4
20260508175347 60 279 5.0 9.0 0.00 0.00 0.00 41 1010.9
20260508174342 59 213 2.0 10.0 0.00 0.00 0.00 42 1011.0
20260508173342 61 156 3.0 8.0 0.00 0.00 0.00 40 1011.2
20260508172341 60 0 3.0 11.0 0.00 0.00 0.00 40 1011.2
20260508171339 59 235 6.0 11.0 0.00 0.00 0.00 42 1011.6
20260508170334 59 270 2.0 8.0 0.00 0.00 0.00 41 1011.7
20260508165333 60 206 3.0 7.0 0.00 0.00 0.00 42 1011.8
20260508164331 60 83 3.0 10.0 0.00 0.00 0.00 44 1012.0
20260508163327 59 239 5.0 11.0 0.00 0.00 0.00 45 1011.9
20260508162325 59 225 3.0 8.0 0.00 0.00 0.00 50 1012.1
20260508161325 59 66 0.0 4.0 0.00 0.00 0.00 42 1012.1
20260508160321 59 255 5.0 7.0 0.00 0.00 0.00 46 1012.2
20260508155321 58 270 3.0 10.0 0.00 0.00 0.00 49 1012.1
20260508154315 59 254 0.0 7.0 0.00 0.00 0.00 48 1012.2
20260508153314 57 239 5.0 9.0 0.00 0.00 0.00 50 1012.5
20260508152312 57 180 1.0 9.0 0.00 0.00 0.00 48 1012.4
20260508151311 56 254 5.0 7.0 0.00 0.00 0.00 49 1012.3
20260508150310 57 253 6.0 8.0 0.00 0.00 0.00 52 1012.7
20260508145308 56 244 3.0 10.0 0.00 0.00 0.00 53 1012.6
20260508144303 55 239 4.0 9.0 0.00 0.00 0.00 54 1012.7
20260508143303 56 229 4.0 5.0 0.00 0.00 0.00 59 1012.9
20260508142306 57 206 2.0 3.0 0.00 0.00 0.00 57 1012.9
20260508141302 57 270 3.0 4.0 0.00 0.00 0.00 58 1012.8
20260508140302 54 245 5.0 9.0 0.00 0.00 0.00 61 1013.0
20260508135300 55 160 1.0 4.0 0.00 0.00 0.00 61 1013.1
20260508134259 54 195 1.0 4.0 0.00 0.00 0.00 62 1013.1
20260508133259 54 53 0.0 5.0 0.00 0.00 0.00 64 1013.0
20260508132259 52 254 0.0 5.0 0.00 0.00 0.00 66 1013.0
20260508131257 53 172 2.0 3.0 0.00 0.00 0.00 66 1013.1
20260508130258 51 187 0.0 3.0 0.00 0.00 0.00 73 1013.4
20260508125255 49 150 0.0 4.0 0.00 0.00 0.00 76 1013.5
20260508124250 48 170 0.0 4.0 0.00 0.00 0.00 77 1013.3
20260508123246 48 169 2.0 3.0 0.00 0.00 0.00 82 1013.3
20260508122245 46 133 3.0 4.0 0.00 0.00 0.00 85 1013.1
20260508121241 44 120 2.0 5.0 0.00 0.00 0.00 89 1013.1
20260508120236 43 174 0.0 3.0 0.00 0.00 0.00 96 1013.1
20260508115231 41 123 3.0 3.0 0.00 0.00 0.00 98 1012.9
20260508114229 41 169 1.0 2.0 0.00 0.00 0.00 99 1012.9
20260508113225 38 138 0.0 3.0 0.00 0.00 0.00 99 1012.7
20260508112223 38 160 1.0 2.0 0.00 0.00 0.00 99 1012.6
20260508111218 36 131 0.0 3.0 0.00 0.00 0.00 99 1012.5
20260508110218 35 120 0.0 1.0 0.00 0.00 0.00 99 1012.6
20260508105215 32 97 1.0 1.0 0.00 0.00 0.00 99 1012.9
20260508104214 30 82 0.0 1.0 0.00 0.00 0.00 99 1012.9
20260508103209 32 54 1.0 1.0 0.00 0.00 0.00 99 1012.6
20260508102204 30 66 0.0 0.0 0.00 0.00 0.00 99 1012.8
20260508101205 30 90 0.0 1.0 0.00 0.00 0.00 99 1013.0
20260508100200 31 66 1.0 2.0 0.00 0.00 0.00 99 1012.9
20260508095159 32 70 0.0 2.0 0.00 0.00 0.00 99 1012.8
20260508094158 33 195 0.0 0.0 0.00 0.00 0.00 99 1012.9
20260508093153 31 83 0.0 0.0 0.00 0.00 0.00 99 1013.0
20260508092149 33 123 1.0 2.0 0.00 0.00 0.00 99 1013.0
20260508091149 32 77 0.0 0.0 0.00 0.00 0.00 98 1013.1
20260508090143 34 192 0.0 0.0 0.00 0.00 0.00 99 1013.0
20260508085143 32 192 0.0 0.0 0.00 0.00 0.00 98 1012.9
20260508084142 34 192 0.0 0.0 0.00 0.00 0.00 98 1013.2
20260508083137 35 180 0.0 2.0 0.00 0.00 0.00 98 1013.1
20260508082135 34 35 0.0 0.0 0.00 0.00 0.00 98 1013.0
20260508081135 33 35 0.0 0.0 0.00 0.00 0.00 97 1013.0
20260508080131 35 35 0.0 0.0 0.00 0.00 0.00 97 1012.9
20260508075130 35 15 0.0 0.0 0.00 0.00 0.00 97 1013.2
20260508074124 36 15 0.0 0.0 0.00 0.00 0.00 97 1013.2
20260508073119 35 15 0.0 0.0 0.00 0.00 0.00 96 1013.2
20260508072118 37 106 0.0 0.0 0.00 0.00 0.00 96 1013.2
20260508071113 37 66 0.0 0.0 0.00 0.00 0.00 95 1013.1
20260508070109 38 15 0.0 0.0 0.00 0.00 0.00 94 1013.2
20260508065109 38 194 0.0 0.0 0.00 0.00 0.00 94 1013.1
20260508064105 38 353 0.0 0.0 0.00 0.00 0.00 93 1013.3
20260508063100 39 353 0.0 0.0 0.00 0.00 0.00 92 1013.3
20260508062059 40 194 0.0 0.0 0.00 0.00 0.00 91 1013.5
20260508061055 41 194 0.0 0.0 0.00 0.00 0.00 90 1013.3
20260508060054 41 194 0.0 0.0 0.00 0.00 0.00 89 1013.4
20260508055053 42 194 0.0 2.0 0.00 0.00 0.00 90 1013.3
20260508054053 42 106 0.0 0.0 0.00 0.00 0.00 90 1013.3